• In Spain
  • List of Countries
  • For 7 days
  • Water Temperature
  • Satellite Maps
  • Weather Map
  • Weather Widgets
  • user-avatar
    Login

    Hourly Weather Rawson

    Today, 21 August, Tuesday

    Time Temperature Precipitation Wind Pressure Humidity
    00:00 +9°C° 0 mm 7 mps 761 mmHg 31%
    01:00 +8°C° 0 mm 7 mps 760 mmHg 32%
    02:00 +8°C° 0 mm 6 mps 760 mmHg 34%
    03:00 +8°C° 0 mm 5 mps 760 mmHg 34%
    04:00 +7°C° 0 mm 5 mps 759 mmHg 35%
    05:00 +7°C° 0 mm 5 mps 759 mmHg 35%
    06:00 +7°C° 0 mm 5 mps 759 mmHg 35%
    07:00 +7°C° 0 mm 5 mps 759 mmHg 36%
    08:00 +8°C° 0 mm 5 mps 759 mmHg 35%
    09:00 +10°C° 0 mm 5 mps 759 mmHg 31%
    10:00 +13°C° 0 mm 5 mps 759 mmHg 27%
    11:00 +15°C° 0 mm 5 mps 759 mmHg 24%
    12:00 +17°C° 0 mm 4 mps 758 mmHg 21%
    13:00 +18°C° 0 mm 4 mps 758 mmHg 19%
    14:00 +20°C° 0 mm 4 mps 758 mmHg 17%
    15:00 +19°C° 0 mm 4 mps 757 mmHg 19%
    16:00 +19°C° 0 mm 4 mps 757 mmHg 21%
    17:00 +18°C° 0 mm 3 mps 757 mmHg 22%
    18:00 +17°C° 0 mm 4 mps 757 mmHg 25%
    19:00 +14°C° 0 mm 4 mps 757 mmHg 27%
    20:00 +13°C° 0 mm 4 mps 757 mmHg 30%
    21:00 +13°C° 0 mm 4 mps 756 mmHg 31%
    22:00 +12°C° 0 mm 4 mps 756 mmHg 33%
    23:00 +11°C° 0 mm 3 mps 756 mmHg 34%

    Tomorrow, 22 August, Wednesday

    Time Temperature Precipitation Wind Pressure Humidity
    00:00 +11°C° 0 mm 3 mps 755 mmHg 34%
    01:00 +11°C° 0 mm 3 mps 755 mmHg 34%
    02:00 +11°C° 0 mm 3 mps 754 mmHg 33%
    03:00 +10°C° 0 mm 3 mps 754 mmHg 34%
    04:00 +10°C° 0 mm 4 mps 753 mmHg 35%
    05:00 +10°C° 0 mm 4 mps 753 mmHg 36%
    06:00 +10°C° 0 mm 5 mps 753 mmHg 35%
    07:00 +10°C° 0 mm 6 mps 752 mmHg 34%
    08:00 +10°C° 0 mm 7 mps 752 mmHg 33%
    09:00 +13°C° 0 mm 8 mps 752 mmHg 28%
    10:00 +16°C° 0 mm 8 mps 751 mmHg 22%
    11:00 +19°C° 0 mm 9 mps 751 mmHg 17%
    12:00 +21°C° 0 mm 9 mps 750 mmHg 16%
    13:00 +22°C° 0 mm 9 mps 749 mmHg 15%
    14:00 +23°C° 0 mm 9 mps 748 mmHg 13%
    15:00 +22°C° 0 mm 10 mps 747 mmHg 15%
    16:00 +21°C° 0 mm 10 mps 747 mmHg 16%
    17:00 +21°C° 0 mm 11 mps 746 mmHg 18%
    18:00 +19°C° 0 mm 10 mps 746 mmHg 22%
    19:00 +18°C° 0 mm 10 mps 747 mmHg 25%
    20:00 +17°C° 0 mm 9 mps 747 mmHg 29%
    21:00 +16°C° 0 mm 8 mps 747 mmHg 32%
    22:00 +15°C° 0 mm 7 mps 746 mmHg 35%
    23:00 +14°C° 0 mm 6 mps 746 mmHg 38%

    Day after tomorrow, 23 August, Thursday

    Time Temperature Precipitation Wind Pressure Humidity
    00:00 +14°C° 0 mm 7 mps 746 mmHg 38%
    01:00 +12°C° 0 mm 7 mps 746 mmHg 39%
    02:00 +11°C° 0 mm 7 mps 746 mmHg 39%
    03:00 +11°C° 0 mm 8 mps 746 mmHg 41%
    04:00 +11°C° 0 mm 8 mps 747 mmHg 44%
    05:00 +11°C° 0 mm 8 mps 747 mmHg 46%
    06:00 +10°C° 0 mm 9 mps 748 mmHg 45%
    07:00 +8°C° 0 mm 9 mps 749 mmHg 45%
    08:00 +8°C° 0 mm 9 mps 750 mmHg 44%
    09:00 +9°C° 0 mm 10 mps 751 mmHg 38%
    10:00 +9°C° 0 mm 10 mps 752 mmHg 32%
    11:00 +11°C° 0 mm 11 mps 753 mmHg 26%
    12:00 +12°C° 0 mm 10 mps 753 mmHg 25%
    13:00 +12°C° 0 mm 10 mps 753 mmHg 24%
    14:00 +13°C° 0 mm 9 mps 754 mmHg 22%
    15:00 +12°C° 0 mm 9 mps 755 mmHg 23%
    16:00 +12°C° 0 mm 8 mps 755 mmHg 23%
    17:00 +12°C° 0 mm 7 mps 756 mmHg 24%
    18:00 +11°C° 0 mm 6 mps 757 mmHg 28%
    19:00 +10°C° 0 mm 6 mps 759 mmHg 32%
    20:00 +9°C° 0 mm 5 mps 760 mmHg 37%
    21:00 +8°C° 0 mm 4 mps 761 mmHg 44%
    22:00 +8°C° 0 mm 4 mps 762 mmHg 51%
    23:00 +8°C° 0 mm 3 mps 763 mmHg 58%

    24 August, Friday

    Time Temperature Precipitation Wind Pressure Humidity
    00:00 +7°C° 0 mm 3 mps 764 mmHg 58%
    01:00 +7°C° 0 mm 3 mps 764 mmHg 59%
    02:00 +7°C° 0 mm 3 mps 765 mmHg 59%
    03:00 +5°C° 0 mm 3 mps 766 mmHg 57%
    04:00 +5°C° 0 mm 4 mps 766 mmHg 56%
    05:00 +3°C° 0 mm 5 mps 766 mmHg 54%
    06:00 +3°C° 0 mm 5 mps 767 mmHg 55%
    07:00 +3°C° 0 mm 5 mps 767 mmHg 56%
    08:00 +3°C° 0 mm 5 mps 768 mmHg 56%
    09:00 +5°C° 0 mm 5 mps 768 mmHg 51%
    10:00 +7°C° 0 mm 5 mps 768 mmHg 45%
    11:00 +8°C° 0 mm 5 mps 768 mmHg 40%
    12:00 +8°C° 0 mm 5 mps 768 mmHg 37%
    13:00 +10°C° 0 mm 4 mps 767 mmHg 34%
    14:00 +11°C° 0 mm 4 mps 767 mmHg 31%
    15:00 +11°C° 0 mm 4 mps 767 mmHg 30%
    16:00 +11°C° 0 mm 3 mps 766 mmHg 30%
    17:00 +10°C° 0 mm 3 mps 766 mmHg 29%
    18:00 +10°C° 0 mm 3 mps 766 mmHg 31%
    19:00 +9°C° 0 mm 3 mps 766 mmHg 34%
    20:00 +9°C° 0 mm 3 mps 765 mmHg 36%
    21:00 +7°C° 0 mm 4 mps 765 mmHg 39%
    22:00 +7°C° 0 mm 5 mps 765 mmHg 41%
    23:00 +7°C° 0 mm 5 mps 764 mmHg 43%

    25 August, Saturday

    Time Temperature Precipitation Wind Pressure Humidity
    00:00 +6°C° 0 mm 5 mps 764 mmHg 45%
    01:00 +6°C° 0 mm 5 mps 763 mmHg 47%
    02:00 +6°C° 0 mm 5 mps 763 mmHg 49%
    03:00 +6°C° 0 mm 5 mps 762 mmHg 48%
    04:00 +6°C° 0 mm 5 mps 761 mmHg 46%
    05:00 +6°C° 0 mm 5 mps 761 mmHg 45%
    06:00 +5°C° 0 mm 6 mps 761 mmHg 46%
    07:00 +5°C° 0 mm 6 mps 760 mmHg 47%
    08:00 +7°C° 0 mm 6 mps 760 mmHg 48%
    09:00 +9°C° 0 mm 7 mps 760 mmHg 44%
    10:00 +12°C° 0 mm 7 mps 760 mmHg 41%
    11:00 +15°C° 0 mm 8 mps 760 mmHg 37%
    12:00 +16°C° 0 mm 7 mps 759 mmHg 36%
    13:00 +17°C° 0 mm 7 mps 758 mmHg 36%
    14:00 +17°C° 0 mm 7 mps 758 mmHg 35%
    15:00 +19°C° 0 mm 6 mps 757 mmHg 36%
    16:00 +19°C° 0 mm 5 mps 756 mmHg 38%
    17:00 +19°C° 0 mm 5 mps 755 mmHg 39%
    18:00 +17°C° 0 mm 6 mps 755 mmHg 41%
    19:00 +17°C° 0 mm 7 mps 754 mmHg 43%
    20:00 +16°C° 0 mm 8 mps 753 mmHg 45%
    21:00 +16°C° 0 mm 9 mps 753 mmHg 46%
    22:00 +16°C° 0 mm 10 mps 752 mmHg 47%
    23:00 +16°C° 0 mm 11 mps 752 mmHg 48%

    26 August, Sunday

    Time Temperature Precipitation Wind Pressure Humidity
    00:00 +16°C° 0 mm 10 mps 752 mmHg 49%
    01:00 +15°C° 0 mm 9 mps 751 mmHg 49%
    02:00 +15°C° 0 mm 9 mps 751 mmHg 50%
    03:00 +13°C° 0 mm 8 mps 751 mmHg 51%
    04:00 +13°C° 0 mm 8 mps 752 mmHg 51%
    05:00 +14°C° 0 mm 7 mps 752 mmHg 51%
    06:00 +13°C° 0 mm 8 mps 753 mmHg 52%
    07:00 +13°C° 0 mm 9 mps 753 mmHg 54%
    08:00 +12°C° 0 mm 9 mps 754 mmHg 55%
    09:00 +13°C° 0 mm 10 mps 755 mmHg 54%
    10:00 +13°C° 0 mm 10 mps 756 mmHg 54%
    11:00 +13°C° 0 mm 11 mps 757 mmHg 54%
    12:00 +12°C° 0 mm 10 mps 758 mmHg 54%
    13:00 +12°C° 0 mm 9 mps 760 mmHg 53%
    14:00 +11°C° 0 mm 8 mps 761 mmHg 53%
    15:00 +10°C° 0 mm 8 mps 761 mmHg 54%
    16:00 +9°C° 0 mm 7 mps 762 mmHg 55%
    17:00 +9°C° 0 mm 7 mps 763 mmHg 56%
    18:00 +8°C° 0 mm 6 mps 763 mmHg 57%
    19:00 +7°C° 0 mm 5 mps 764 mmHg 58%
    20:00 +7°C° 0 mm 5 mps 764 mmHg 60%
    21:00 +6°C° 0 mm 5 mps 764 mmHg 61%
    22:00 +6°C° 0 mm 5 mps 764 mmHg 62%
    23:00 +6°C° 0 mm 5 mps 763 mmHg 63%
    Show more